Volver al catálogo

METEOR 2-5 DEB

LostPO
NORAD 38535·DEBRIS·🇷🇺 Russia

Lanzado Oct 31, 1979 desde Plesetsk Cosmodrome

Loading…

Próximos Pases (próximas 24 horas)

TLE

ObsoletoSource: Space-Track

Época: Sep 7, 2022, 15:57 UTC

1 38535U 79095CC  22250.66494828  .00006114  00000-0  22516-2 0  9992
2 38535  81.2010  21.7087 0019033 216.6878 143.3003 14.32400904714954

Sigue METEOR 2-5 DEB en tiempo real con AllMySat

Download on the App Store